Volver al catálogo

CZ-3A R/B

ActivoHEO
NORAD 41435·ROCKET BODY·🇨🇳 China

Lanzado Mar 29, 2016 desde Xichang Satellite Launch Center

Loading…

Próximos Pases (próximas 24 horas)

TLE

ActualizadoSource: Space-Track

Época: Sep 8, 2026, 07:56 UTC

1 41435U 16021B   26251.33092760 -.00000032  00000-0  00000-0 0  9999
2 41435  55.0525 343.8954 6667072 281.3327  15.7441  2.39505245 90979

Sigue CZ-3A R/B en tiempo real con AllMySat

Download on the App Store